Time,TemperatureF,DewpointF,PressureIn,WindDirection,WindDirectionDegrees,WindSpeedMPH,WindSpeedGustMPH,Humidity,HourlyPrecipIn,Conditions,Clouds,dailyrainin,SoftwareType,DateUTC
2013-08-14 00:02:00,57.3,50.8,30.09,NNW,330,1.0,3.0,79,0.00,,,0.00,Wunderground v.1.15,2013-08-14 04:02:00,
2013-08-14 00:04:00,57.2,50.7,30.09,NNW,327,1.0,3.0,79,0.00,,,0.00,Wunderground v.1.15,2013-08-14 04:04:00,
2013-08-14 00:06:00,57.1,51.0,30.09,NNW,327,1.0,3.0,80,0.00,,,0.00,Wunderground v.1.15,2013-08-14 04:06:00,
2013-08-14 00:08:00,57.0,50.9,30.09,NNW,327,1.0,3.0,80,0.00,,,0.00,Wunderground v.1.15,2013-08-14 04:08:00,
2013-08-14 00:10:00,56.9,50.8,30.09,NNW,327,1.0,1.0,80,0.00,,,0.00,Wunderground v.1.15,2013-08-14 04:10:00,
2013-08-14 00:12:00,56.8,50.7,30.09,NNW,343,1.0,3.0,80,0.00,,,0.00,Wunderground v.1.15,2013-08-14 04:12:00,
2013-08-14 00:16:00,56.7,50.9,30.09,NNE,16,2.0,3.0,81,0.00,,,0.00,Wunderground v.1.15,2013-08-14 04:16:00,
2013-08-14 00:18:00,56.6,50.8,30.09,North,4,2.0,3.0,81,0.00,,,0.00,Wunderground v.1.15,2013-08-14 04:18:00,
2013-08-14 00:20:00,56.5,50.7,30.09,NNW,342,2.0,3.0,81,0.00,,,0.00,Wunderground v.1.15,2013-08-14 04:20:00,
2013-08-14 00:24:00,56.4,51.0,30.09,North,9,2.0,3.0,82,0.00,,,0.00,Wunderground v.1.15,2013-08-14 04:24:00,
2013-08-14 00:26:00,56.4,51.0,30.09,NNW,340,2.0,4.0,82,0.00,,,0.00,Wunderground v.1.15,2013-08-14 04:26:00,
2013-08-14 00:30:00,56.4,51.0,30.09,NNE,18,3.0,4.0,82,0.00,,,0.00,Wunderground v.1.15,2013-08-14 04:30:00,
2013-08-14 00:32:00,56.4,51.0,30.09,NNW,344,3.0,4.0,82,0.00,,,0.00,Wunderground v.1.15,2013-08-14 04:32:00,
2013-08-14 00:34:00,56.3,50.9,30.09,NNE,12,3.0,4.0,82,0.00,,,0.00,Wunderground v.1.15,2013-08-14 04:34:00,
2013-08-14 00:36:00,56.3,50.9,30.09,NNE,15,3.0,4.0,82,0.00,,,0.00,Wunderground v.1.15,2013-08-14 04:36:00,
2013-08-14 00:40:00,56.2,50.8,30.09,North,4,2.0,3.0,82,0.00,,,0.00,Wunderground v.1.15,2013-08-14 04:40:00,
2013-08-14 00:42:00,56.2,50.8,30.09,North,4,2.0,3.0,82,0.00,,,0.00,Wunderground v.1.15,2013-08-14 04:42:00,
2013-08-14 00:48:00,56.0,50.9,30.09,North,354,2.0,3.0,83,0.00,,,0.00,Wunderground v.1.15,2013-08-14 04:48:00,
2013-08-14 00:52:00,55.9,50.8,30.09,NW,325,2.0,3.0,83,0.00,,,0.00,Wunderground v.1.15,2013-08-14 04:52:00,
2013-08-14 00:54:00,55.9,50.8,30.09,NW,325,2.0,3.0,83,0.00,,,0.00,Wunderground v.1.15,2013-08-14 04:54:00,
2013-08-14 00:56:00,55.9,50.8,30.09,North,4,2.0,3.0,83,0.00,,,0.00,Wunderground v.1.15,2013-08-14 04:56:00,
2013-08-14 01:02:00,55.8,50.7,30.09,North,354,2.0,3.0,83,0.00,,,0.00,Wunderground v.1.15,2013-08-14 05:02:00,
2013-08-14 01:04:00,55.8,50.7,30.09,North,349,2.0,3.0,83,0.00,,,0.00,Wunderground v.1.15,2013-08-14 05:04:00,
2013-08-14 01:06:00,55.8,50.7,30.09,NW,325,2.0,3.0,83,0.00,,,0.00,Wunderground v.1.15,2013-08-14 05:06:00,
2013-08-14 01:08:00,55.7,50.6,30.09,NNW,333,2.0,3.0,83,0.00,,,0.00,Wunderground v.1.15,2013-08-14 05:08:00,
2013-08-14 01:12:00,55.6,50.8,30.09,North,354,2.0,3.0,84,0.00,,,0.00,Wunderground v.1.15,2013-08-14 05:12:00,
2013-08-14 01:16:00,55.5,50.7,30.09,NNW,343,2.0,3.0,84,0.00,,,0.00,Wunderground v.1.15,2013-08-14 05:16:00,
2013-08-14 01:20:00,55.4,50.6,30.09,North,4,2.0,3.0,84,0.00,,,0.00,Wunderground v.1.15,2013-08-14 05:20:00,
2013-08-14 01:22:00,55.4,50.6,30.10,NNW,346,2.0,3.0,84,0.00,,,0.00,Wunderground v.1.15,2013-08-14 05:22:00,
2013-08-14 01:24:00,55.3,50.5,30.10,NNW,346,1.0,3.0,84,0.00,,,0.00,Wunderground v.1.15,2013-08-14 05:24:00,
2013-08-14 01:28:00,55.3,50.5,30.10,NW,324,1.0,3.0,84,0.00,,,0.00,Wunderground v.1.15,2013-08-14 05:28:00,
2013-08-14 01:30:00,55.2,50.4,30.10,North,349,1.0,3.0,84,0.00,,,0.00,Wunderground v.1.15,2013-08-14 05:30:00,
2013-08-14 01:34:00,55.2,50.4,30.10,North,4,2.0,3.0,84,0.00,,,0.00,Wunderground v.1.15,2013-08-14 05:34:00,
2013-08-14 01:36:00,55.2,50.8,30.10,NNE,21,2.0,3.0,85,0.00,,,0.00,Wunderground v.1.15,2013-08-14 05:36:00,
2013-08-14 01:40:00,55.2,50.8,30.10,North,4,2.0,3.0,85,0.00,,,0.00,Wunderground v.1.15,2013-08-14 05:40:00,
2013-08-14 01:44:00,55.2,50.4,30.10,North,4,2.0,3.0,84,0.00,,,0.00,Wunderground v.1.15,2013-08-14 05:44:00,
2013-08-14 01:48:00,55.2,50.4,30.10,NNW,329,2.0,3.0,84,0.00,,,0.00,Wunderground v.1.15,2013-08-14 05:48:00,
2013-08-14 01:50:00,55.1,50.4,30.10,NNW,327,2.0,2.0,84,0.00,,,0.00,Wunderground v.1.15,2013-08-14 05:50:00,
2013-08-14 01:56:00,55.0,50.6,30.10,NW,318,2.0,3.0,85,0.00,,,0.00,Wunderground v.1.15,2013-08-14 05:56:00,
2013-08-14 01:58:00,54.9,50.5,30.10,NW,318,2.0,3.0,85,0.00,,,0.00,Wunderground v.1.15,2013-08-14 05:58:00,
2013-08-14 02:00:00,54.8,50.4,30.10,NW,314,2.0,3.0,85,0.00,,,0.00,Wunderground v.1.15,2013-08-14 06:00:00,
2013-08-14 02:06:00,54.6,50.2,30.09,NW,310,2.0,3.0,85,0.00,,,0.00,Wunderground v.1.15,2013-08-14 06:06:00,
2013-08-14 02:08:00,54.6,50.2,30.09,NW,304,2.0,3.0,85,0.00,,,0.00,Wunderground v.1.15,2013-08-14 06:08:00,
2013-08-14 02:10:00,54.5,50.4,30.09,NNW,331,2.0,3.0,86,0.00,,,0.00,Wunderground v.1.15,2013-08-14 06:10:00,
2013-08-14 02:12:00,54.4,50.3,30.09,NW,309,2.0,3.0,86,0.00,,,0.00,Wunderground v.1.15,2013-08-14 06:12:00,
2013-08-14 02:18:00,54.2,50.1,30.09,WNW,299,2.0,3.0,86,0.00,,,0.00,Wunderground v.1.15,2013-08-14 06:18:00,
2013-08-14 02:20:00,54.1,50.0,30.09,WNW,299,2.0,2.0,86,0.00,,,0.00,Wunderground v.1.15,2013-08-14 06:20:00,
2013-08-14 02:24:00,54.0,50.2,30.10,WNW,299,2.0,3.0,87,0.00,,,0.00,Wunderground v.1.15,2013-08-14 06:24:00,
2013-08-14 02:26:00,54.0,50.2,30.09,WNW,295,2.0,3.0,87,0.00,,,0.00,Wunderground v.1.15,2013-08-14 06:26:00,
2013-08-14 02:28:00,53.9,50.1,30.09,WNW,295,2.0,3.0,87,0.00,,,0.00,Wunderground v.1.15,2013-08-14 06:28:00,
2013-08-14 02:32:00,53.9,50.1,30.09,WNW,295,2.0,3.0,87,0.00,,,0.00,Wunderground v.1.15,2013-08-14 06:32:00,
2013-08-14 02:34:00,53.8,50.0,30.09,WNW,295,2.0,3.0,87,0.00,,,0.00,Wunderground v.1.15,2013-08-14 06:34:00,
2013-08-14 02:38:00,53.8,50.0,30.09,WNW,303,1.0,3.0,87,0.00,,,0.00,Wunderground v.1.15,2013-08-14 06:38:00,
2013-08-14 02:40:00,53.7,49.9,30.09,WNW,303,1.0,3.0,87,0.00,,,0.00,Wunderground v.1.15,2013-08-14 06:40:00,
2013-08-14 02:42:00,53.7,49.9,30.09,NW,318,1.0,3.0,87,0.00,,,0.00,Wunderground v.1.15,2013-08-14 06:42:00,
2013-08-14 02:44:00,53.7,49.9,30.09,NW,318,2.0,3.0,87,0.00,,,0.00,Wunderground v.1.15,2013-08-14 06:44:00,
2013-08-14 02:48:00,53.7,49.9,30.09,WNW,303,2.0,3.0,87,0.00,,,0.00,Wunderground v.1.15,2013-08-14 06:48:00,
2013-08-14 02:50:00,53.7,49.9,30.09,WNW,301,2.0,3.0,87,0.00,,,0.00,Wunderground v.1.15,2013-08-14 06:50:00,
2013-08-14 02:52:00,53.6,49.8,30.09,WNW,298,2.0,3.0,87,0.00,,,0.00,Wunderground v.1.15,2013-08-14 06:52:00,
2013-08-14 02:54:00,53.6,49.8,30.09,WNW,298,2.0,3.0,87,0.00,,,0.00,Wunderground v.1.15,2013-08-14 06:54:00,
2013-08-14 02:58:00,53.5,49.7,30.09,WNW,299,2.0,3.0,87,0.00,,,0.00,Wunderground v.1.15,2013-08-14 06:58:00,
2013-08-14 03:00:00,53.5,49.7,30.09,WNW,300,2.0,3.0,87,0.00,,,0.00,Wunderground v.1.15,2013-08-14 07:00:00,
2013-08-14 03:04:00,53.5,49.7,30.09,WNW,300,2.0,3.0,87,0.00,,,0.00,Wunderground v.1.15,2013-08-14 07:04:00,
2013-08-14 03:08:00,53.5,49.7,30.10,WNW,300,2.0,3.0,87,0.00,,,0.00,Wunderground v.1.15,2013-08-14 07:08:00,
2013-08-14 03:10:00,53.5,49.7,30.09,WNW,300,2.0,3.0,87,0.00,,,0.00,Wunderground v.1.15,2013-08-14 07:10:00,
2013-08-14 03:12:00,53.4,49.6,30.10,WNW,300,2.0,3.0,87,0.00,,,0.00,Wunderground v.1.15,2013-08-14 07:12:00,
2013-08-14 03:16:00,53.3,49.5,30.10,WNW,300,2.0,3.0,87,0.00,,,0.00,Wunderground v.1.15,2013-08-14 07:16:00,
2013-08-14 03:18:00,53.3,49.5,30.10,WNW,300,2.0,3.0,87,0.00,,,0.00,Wunderground v.1.15,2013-08-14 07:18:00,
2013-08-14 03:20:00,53.3,49.5,30.10,WNW,299,2.0,3.0,87,0.00,,,0.00,Wunderground v.1.15,2013-08-14 07:20:00,
2013-08-14 03:22:00,53.3,49.8,30.10,NW,305,2.0,3.0,88,0.00,,,0.00,Wunderground v.1.15,2013-08-14 07:22:00,
2013-08-14 03:26:00,53.1,49.6,30.10,WNW,296,2.0,3.0,88,0.00,,,0.00,Wunderground v.1.15,2013-08-14 07:26:00,
2013-08-14 03:28:00,53.1,49.6,30.10,NW,305,2.0,3.0,88,0.00,,,0.00,Wunderground v.1.15,2013-08-14 07:28:00,
2013-08-14 03:32:00,53.0,49.5,30.10,WNW,303,2.0,3.0,88,0.00,,,0.00,Wunderground v.1.15,2013-08-14 07:32:00,
2013-08-14 03:34:00,53.0,49.5,30.10,WNW,303,2.0,3.0,88,0.00,,,0.00,Wunderground v.1.15,2013-08-14 07:34:00,
2013-08-14 03:36:00,53.0,49.5,30.10,WNW,303,2.0,3.0,88,0.00,,,0.00,Wunderground v.1.15,2013-08-14 07:36:00,
2013-08-14 03:38:00,52.9,49.4,30.10,WNW,303,2.0,3.0,88,0.00,,,0.00,Wunderground v.1.15,2013-08-14 07:38:00,
2013-08-14 03:40:00,52.9,49.4,30.10,WNW,303,2.0,2.0,88,0.00,,,0.00,Wunderground v.1.15,2013-08-14 07:40:00,
2013-08-14 03:42:00,52.9,49.4,30.10,WNW,303,2.0,3.0,88,0.00,,,0.00,Wunderground v.1.15,2013-08-14 07:42:00,
2013-08-14 03:44:00,52.9,49.4,30.10,WNW,299,2.0,3.0,88,0.00,,,0.00,Wunderground v.1.15,2013-08-14 07:44:00,
2013-08-14 03:46:00,52.9,49.4,30.10,WNW,299,2.0,3.0,88,0.00,,,0.00,Wunderground v.1.15,2013-08-14 07:46:00,
2013-08-14 03:48:00,52.8,49.3,30.10,WNW,299,2.0,3.0,88,0.00,,,0.00,Wunderground v.1.15,2013-08-14 07:48:00,
2013-08-14 03:50:00,52.8,49.3,30.10,WNW,299,1.0,3.0,88,0.00,,,0.00,Wunderground v.1.15,2013-08-14 07:50:00,
2013-08-14 03:52:00,52.8,49.3,30.10,WNW,299,1.0,3.0,88,0.00,,,0.00,Wunderground v.1.15,2013-08-14 07:52:00,
2013-08-14 03:56:00,52.7,49.2,30.10,WNW,299,1.0,3.0,88,0.00,,,0.00,Wunderground v.1.15,2013-08-14 07:56:00,
2013-08-14 03:58:00,52.7,48.9,30.10,WNW,299,1.0,3.0,87,0.00,,,0.00,Wunderground v.1.15,2013-08-14 07:58:00,
2013-08-14 04:02:00,52.7,48.9,30.10,NW,305,1.0,3.0,87,0.00,,,0.00,Wunderground v.1.15,2013-08-14 08:02:00,
2013-08-14 04:04:00,52.7,48.9,30.10,NW,305,1.0,3.0,87,0.00,,,0.00,Wunderground v.1.15,2013-08-14 08:04:00,
2013-08-14 04:06:00,52.7,48.9,30.10,NW,305,1.0,3.0,87,0.00,,,0.00,Wunderground v.1.15,2013-08-14 08:06:00,
2013-08-14 04:08:00,52.8,49.0,30.11,NW,305,0.0,3.0,87,0.00,,,0.00,Wunderground v.1.15,2013-08-14 08:08:00,
2013-08-14 04:10:00,52.8,49.0,30.11,NNW,327,1.0,3.0,87,0.00,,,0.00,Wunderground v.1.15,2013-08-14 08:10:00,
2013-08-14 04:14:00,52.9,49.1,30.11,NNW,327,1.0,3.0,87,0.00,,,0.00,Wunderground v.1.15,2013-08-14 08:14:00,
2013-08-14 04:16:00,52.9,48.8,30.11,NNW,332,1.0,3.0,86,0.00,,,0.00,Wunderground v.1.15,2013-08-14 08:16:00,
2013-08-14 04:18:00,53.0,48.9,30.11,NNW,332,1.0,3.0,86,0.00,,,0.00,Wunderground v.1.15,2013-08-14 08:18:00,
2013-08-14 04:20:00,53.0,48.9,30.11,NNW,332,1.0,1.0,86,0.00,,,0.00,Wunderground v.1.15,2013-08-14 08:20:00,
2013-08-14 04:22:00,53.0,48.9,30.11,NNW,332,1.0,3.0,86,0.00,,,0.00,Wunderground v.1.15,2013-08-14 08:22:00,
2013-08-14 04:28:00,52.9,48.8,30.11,NNW,332,1.0,3.0,86,0.00,,,0.00,Wunderground v.1.15,2013-08-14 08:28:00,
2013-08-14 04:32:00,52.9,48.8,30.11,NNW,332,1.0,3.0,86,0.00,,,0.00,Wunderground v.1.15,2013-08-14 08:32:00,
2013-08-14 04:34:00,52.9,48.8,30.11,NNW,332,1.0,3.0,86,0.00,,,0.00,Wunderground v.1.15,2013-08-14 08:34:00,
2013-08-14 04:38:00,52.9,48.8,30.11,NNW,332,1.0,3.0,86,0.00,,,0.00,Wunderground v.1.15,2013-08-14 08:38:00,
2013-08-14 04:40:00,52.9,48.8,30.11,NW,313,1.0,3.0,86,0.00,,,0.00,Wunderground v.1.15,2013-08-14 08:40:00,
2013-08-14 04:42:00,52.9,48.8,30.11,NW,313,1.0,3.0,86,0.00,,,0.00,Wunderground v.1.15,2013-08-14 08:42:00,
2013-08-14 04:44:00,52.9,48.8,30.11,NW,313,1.0,3.0,86,0.00,,,0.00,Wunderground v.1.15,2013-08-14 08:44:00,
2013-08-14 04:46:00,53.0,48.9,30.11,NW,313,2.0,3.0,86,0.00,,,0.00,Wunderground v.1.15,2013-08-14 08:46:00,
2013-08-14 04:52:00,52.9,48.8,30.11,NW,313,2.0,3.0,86,0.00,,,0.00,Wunderground v.1.15,2013-08-14 08:52:00,
2013-08-14 04:54:00,53.0,48.9,30.11,NW,312,2.0,3.0,86,0.00,,,0.00,Wunderground v.1.15,2013-08-14 08:54:00,
2013-08-14 04:56:00,52.9,48.8,30.11,NW,312,2.0,3.0,86,0.00,,,0.00,Wunderground v.1.15,2013-08-14 08:56:00,
2013-08-14 05:02:00,52.7,48.9,30.12,WNW,287,2.0,3.0,87,0.00,,,0.00,Wunderground v.1.15,2013-08-14 09:02:00,
2013-08-14 05:04:00,52.7,48.9,30.12,WNW,287,2.0,3.0,87,0.00,,,0.00,Wunderground v.1.15,2013-08-14 09:04:00,
2013-08-14 05:08:00,52.3,48.5,30.12,WNW,287,3.0,3.0,87,0.00,,,0.00,Wunderground v.1.15,2013-08-14 09:08:00,
2013-08-14 05:10:00,52.2,48.8,30.12,WNW,283,3.0,3.0,88,0.00,,,0.00,Wunderground v.1.15,2013-08-14 09:10:00,
2013-08-14 05:12:00,52.1,48.7,30.12,WNW,287,2.0,3.0,88,0.00,,,0.00,Wunderground v.1.15,2013-08-14 09:12:00,
2013-08-14 05:16:00,52.0,48.6,30.12,WNW,287,2.0,3.0,88,0.00,,,0.00,Wunderground v.1.15,2013-08-14 09:16:00,
2013-08-14 05:18:00,52.1,48.7,30.12,WNW,287,2.0,3.0,88,0.00,,,0.00,Wunderground v.1.15,2013-08-14 09:18:00,
2013-08-14 05:22:00,52.1,48.7,30.12,WNW,287,2.0,3.0,88,0.00,,,0.00,Wunderground v.1.15,2013-08-14 09:22:00,
2013-08-14 05:24:00,52.0,48.6,30.12,WNW,287,2.0,3.0,88,0.00,,,0.00,Wunderground v.1.15,2013-08-14 09:24:00,
2013-08-14 05:26:00,52.0,48.6,30.12,WNW,287,2.0,3.0,88,0.00,,,0.00,Wunderground v.1.15,2013-08-14 09:26:00,
2013-08-14 05:32:00,51.9,48.8,30.12,WNW,296,2.0,3.0,89,0.00,,,0.00,Wunderground v.1.15,2013-08-14 09:32:00,
2013-08-14 05:34:00,51.8,48.7,30.12,WNW,296,2.0,3.0,89,0.00,,,0.00,Wunderground v.1.15,2013-08-14 09:34:00,
2013-08-14 05:36:00,51.8,48.7,30.12,WNW,303,2.0,3.0,89,0.00,,,0.00,Wunderground v.1.15,2013-08-14 09:36:00,
2013-08-14 05:38:00,51.7,48.6,30.12,WNW,303,2.0,3.0,89,0.00,,,0.00,Wunderground v.1.15,2013-08-14 09:38:00,
2013-08-14 05:40:00,51.7,48.6,30.12,NW,310,3.0,3.0,89,0.00,,,0.00,Wunderground v.1.15,2013-08-14 09:40:00,
2013-08-14 05:44:00,51.6,48.5,30.12,NW,310,2.0,3.0,89,0.00,,,0.00,Wunderground v.1.15,2013-08-14 09:44:00,
2013-08-14 05:46:00,51.5,48.4,30.12,NW,318,2.0,3.0,89,0.00,,,0.00,Wunderground v.1.15,2013-08-14 09:46:00,
2013-08-14 05:52:00,51.3,48.2,30.12,NW,314,2.0,3.0,89,0.00,,,0.00,Wunderground v.1.15,2013-08-14 09:52:00,
2013-08-14 05:54:00,51.3,48.2,30.13,NW,314,2.0,3.0,89,0.00,,,0.00,Wunderground v.1.15,2013-08-14 09:54:00,
2013-08-14 05:56:00,51.3,48.2,30.13,NW,314,2.0,3.0,89,0.00,,,0.00,Wunderground v.1.15,2013-08-14 09:56:00,
2013-08-14 05:58:00,51.3,48.2,30.13,NW,314,2.0,3.0,89,0.00,,,0.00,Wunderground v.1.15,2013-08-14 09:58:00,
2013-08-14 06:00:00,51.2,48.1,30.13,NW,314,2.0,3.0,89,0.00,,,0.00,Wunderground v.1.15,2013-08-14 10:00:00,
2013-08-14 06:02:00,51.2,48.1,30.13,NW,314,2.0,3.0,89,0.00,,,0.00,Wunderground v.1.15,2013-08-14 10:02:00,
2013-08-14 06:08:00,51.2,48.4,30.12,NW,312,2.0,3.0,90,0.00,,,0.00,Wunderground v.1.15,2013-08-14 10:08:00,
2013-08-14 06:10:00,51.2,48.4,30.12,NW,312,2.0,2.0,90,0.00,,,0.00,Wunderground v.1.15,2013-08-14 10:10:00,
2013-08-14 06:12:00,51.1,48.3,30.13,NW,310,2.0,2.0,90,0.00,,,0.00,Wunderground v.1.15,2013-08-14 10:12:00,
2013-08-14 06:14:00,51.0,48.2,30.13,WNW,289,2.0,3.0,90,0.00,,,0.00,Wunderground v.1.15,2013-08-14 10:14:00,
2013-08-14 06:18:00,50.9,48.1,30.13,West,276,2.0,3.0,90,0.00,,,0.00,Wunderground v.1.15,2013-08-14 10:18:00,
2013-08-14 06:22:00,50.8,48.0,30.13,West,276,2.0,3.0,90,0.00,,,0.00,Wunderground v.1.15,2013-08-14 10:22:00,
2013-08-14 06:24:00,50.7,47.9,30.13,West,276,2.0,3.0,90,0.00,,,0.00,Wunderground v.1.15,2013-08-14 10:24:00,
2013-08-14 06:26:00,50.6,47.8,30.13,West,276,2.0,3.0,90,0.00,,,0.00,Wunderground v.1.15,2013-08-14 10:26:00,
2013-08-14 06:30:00,50.6,47.8,30.13,West,274,2.0,2.0,90,0.00,,,0.00,Wunderground v.1.15,2013-08-14 10:30:00,
2013-08-14 06:32:00,50.6,48.1,30.13,West,274,1.0,4.0,91,0.00,,,0.00,Wunderground v.1.15,2013-08-14 10:32:00,
2013-08-14 06:36:00,50.6,48.1,30.13,West,274,1.0,4.0,91,0.00,,,0.00,Wunderground v.1.15,2013-08-14 10:36:00,
2013-08-14 06:38:00,50.6,48.1,30.13,West,274,1.0,4.0,91,0.00,,,0.00,Wunderground v.1.15,2013-08-14 10:38:00,
2013-08-14 06:40:00,50.7,48.2,30.13,West,274,2.0,4.0,91,0.00,,,0.00,Wunderground v.1.15,2013-08-14 10:40:00,
2013-08-14 06:44:00,50.8,48.3,30.13,West,274,2.0,4.0,91,0.00,,,0.00,Wunderground v.1.15,2013-08-14 10:44:00,
2013-08-14 06:46:00,50.8,48.0,30.13,West,274,2.0,4.0,90,0.00,,,0.00,Wunderground v.1.15,2013-08-14 10:46:00,
2013-08-14 06:48:00,50.8,48.0,30.14,West,274,2.0,4.0,90,0.00,,,0.00,Wunderground v.1.15,2013-08-14 10:48:00,
2013-08-14 06:50:00,50.8,48.0,30.14,West,274,2.0,4.0,90,0.00,,,0.00,Wunderground v.1.15,2013-08-14 10:50:00,
2013-08-14 06:54:00,50.8,48.0,30.14,West,274,2.0,4.0,90,0.00,,,0.00,Wunderground v.1.15,2013-08-14 10:54:00,
2013-08-14 06:56:00,50.8,48.0,30.14,West,274,2.0,4.0,90,0.00,,,0.00,Wunderground v.1.15,2013-08-14 10:56:00,
2013-08-14 06:58:00,50.9,48.1,30.14,West,274,2.0,4.0,90,0.00,,,0.00,Wunderground v.1.15,2013-08-14 10:58:00,
2013-08-14 07:00:00,50.8,48.0,30.14,West,274,2.0,2.0,90,0.00,,,0.00,Wunderground v.1.15,2013-08-14 11:00:00,
2013-08-14 07:02:00,50.9,48.1,30.14,West,274,2.0,4.0,90,0.00,,,0.00,Wunderground v.1.15,2013-08-14 11:02:00,
2013-08-14 07:04:00,50.8,48.0,30.15,West,274,2.0,4.0,90,0.00,,,0.00,Wunderground v.1.15,2013-08-14 11:04:00,
2013-08-14 07:06:00,50.7,47.9,30.15,West,274,2.0,4.0,90,0.00,,,0.00,Wunderground v.1.15,2013-08-14 11:06:00,
2013-08-14 07:10:00,50.2,47.4,30.15,West,275,2.0,4.0,90,0.00,,,0.00,Wunderground v.1.15,2013-08-14 11:10:00,
2013-08-14 07:12:00,49.9,47.4,30.15,West,276,2.0,4.0,91,0.00,,,0.00,Wunderground v.1.15,2013-08-14 11:12:00,
2013-08-14 07:16:00,49.5,47.0,30.15,West,276,3.0,4.0,91,0.00,,,0.00,Wunderground v.1.15,2013-08-14 11:16:00,
2013-08-14 07:18:00,49.5,47.0,30.15,West,276,2.0,4.0,91,0.00,,,0.00,Wunderground v.1.15,2013-08-14 11:18:00,
2013-08-14 07:22:00,49.5,47.3,30.15,West,276,2.0,4.0,92,0.00,,,0.00,Wunderground v.1.15,2013-08-14 11:22:00,
2013-08-14 07:24:00,49.6,47.4,30.15,West,276,1.0,4.0,92,0.00,,,0.00,Wunderground v.1.15,2013-08-14 11:24:00,
2013-08-14 07:26:00,49.7,47.5,30.15,West,276,1.0,4.0,92,0.00,,,0.00,Wunderground v.1.15,2013-08-14 11:26:00,
2013-08-14 07:28:00,49.7,47.5,30.15,West,276,1.0,4.0,92,0.00,,,0.00,Wunderground v.1.15,2013-08-14 11:28:00,
2013-08-14 07:30:00,49.8,47.6,30.15,West,276,2.0,4.0,92,0.00,,,0.00,Wunderground v.1.15,2013-08-14 11:30:00,
2013-08-14 07:32:00,49.8,47.6,30.16,West,276,2.0,4.0,92,0.00,,,0.00,Wunderground v.1.15,2013-08-14 11:32:00,
2013-08-14 07:34:00,49.9,47.7,30.16,West,276,2.0,4.0,92,0.00,,,0.00,Wunderground v.1.15,2013-08-14 11:34:00,
2013-08-14 07:36:00,49.9,47.7,30.16,West,276,2.0,4.0,92,0.00,,,0.00,Wunderground v.1.15,2013-08-14 11:36:00,
2013-08-14 07:40:00,50.0,47.8,30.16,West,276,2.0,4.0,92,0.00,,,0.00,Wunderground v.1.15,2013-08-14 11:40:00,
2013-08-14 07:42:00,49.9,47.7,30.16,West,276,3.0,4.0,92,0.00,,,0.00,Wunderground v.1.15,2013-08-14 11:42:00,
2013-08-14 07:44:00,50.0,47.8,30.16,West,276,3.0,4.0,92,0.00,,,0.00,Wunderground v.1.15,2013-08-14 11:44:00,
2013-08-14 07:48:00,50.1,47.9,30.16,West,276,3.0,4.0,92,0.00,,,0.00,Wunderground v.1.15,2013-08-14 11:48:00,
2013-08-14 07:50:00,50.1,47.9,30.16,West,276,3.0,3.0,92,0.00,,,0.00,Wunderground v.1.15,2013-08-14 11:50:00,
2013-08-14 07:52:00,50.3,48.1,30.16,West,276,3.0,4.0,92,0.00,,,0.00,Wunderground v.1.15,2013-08-14 11:52:00,
2013-08-14 07:56:00,50.5,48.3,30.16,West,276,2.0,4.0,92,0.00,,,0.00,Wunderground v.1.15,2013-08-14 11:56:00,
2013-08-14 07:58:00,50.5,48.3,30.16,West,276,2.0,4.0,92,0.00,,,0.00,Wunderground v.1.15,2013-08-14 11:58:00,
2013-08-14 08:02:00,50.7,48.5,30.16,West,277,2.0,4.0,92,0.00,,,0.00,Wunderground v.1.15,2013-08-14 12:02:00,
2013-08-14 08:04:00,50.8,48.6,30.16,West,277,2.0,4.0,92,0.00,,,0.00,Wunderground v.1.15,2013-08-14 12:04:00,
2013-08-14 08:06:00,50.9,48.7,30.16,West,277,2.0,4.0,92,0.00,,,0.00,Wunderground v.1.15,2013-08-14 12:06:00,
2013-08-14 08:08:00,51.0,48.8,30.17,West,277,2.0,4.0,92,0.00,,,0.00,Wunderground v.1.15,2013-08-14 12:08:00,
2013-08-14 08:12:00,51.3,48.8,30.17,West,277,2.0,4.0,91,0.00,,,0.00,Wunderground v.1.15,2013-08-14 12:12:00,
2013-08-14 08:14:00,51.4,48.9,30.17,West,277,2.0,4.0,91,0.00,,,0.00,Wunderground v.1.15,2013-08-14 12:14:00,
2013-08-14 08:16:00,51.4,48.9,30.17,West,277,2.0,4.0,91,0.00,,,0.00,Wunderground v.1.15,2013-08-14 12:16:00,
2013-08-14 08:18:00,51.5,49.0,30.17,West,277,2.0,4.0,91,0.00,,,0.00,Wunderground v.1.15,2013-08-14 12:18:00,
2013-08-14 08:20:00,51.6,49.1,30.17,West,277,2.0,2.0,91,0.00,,,0.00,Wunderground v.1.15,2013-08-14 12:20:00,
2013-08-14 08:24:00,51.9,49.4,30.17,West,277,2.0,4.0,91,0.00,,,0.00,Wunderground v.1.15,2013-08-14 12:24:00,
2013-08-14 08:26:00,52.0,49.5,30.17,NW,316,2.0,4.0,91,0.00,,,0.00,Wunderground v.1.15,2013-08-14 12:26:00,
2013-08-14 08:28:00,52.1,49.6,30.17,NW,316,2.0,4.0,91,0.00,,,0.00,Wunderground v.1.15,2013-08-14 12:28:00,
2013-08-14 08:34:00,52.7,50.1,30.17,NW,316,2.0,4.0,91,0.00,,,0.00,Wunderground v.1.15,2013-08-14 12:34:00,
2013-08-14 08:36:00,52.8,49.9,30.17,NW,316,2.0,4.0,90,0.00,,,0.00,Wunderground v.1.15,2013-08-14 12:36:00,
2013-08-14 08:40:00,53.1,49.9,30.17,NW,318,2.0,4.0,89,0.00,,,0.00,Wunderground v.1.15,2013-08-14 12:40:00,
2013-08-14 08:42:00,53.2,50.0,30.17,NNW,335,2.0,4.0,89,0.00,,,0.00,Wunderground v.1.15,2013-08-14 12:42:00,
2013-08-14 08:44:00,53.4,50.2,30.17,North,359,3.0,4.0,89,0.00,,,0.00,Wunderground v.1.15,2013-08-14 12:44:00,
2013-08-14 08:46:00,53.6,50.1,30.17,North,354,2.0,4.0,88,0.00,,,0.00,Wunderground v.1.15,2013-08-14 12:46:00,
2013-08-14 08:48:00,53.7,50.2,30.17,NW,320,3.0,4.0,88,0.00,,,0.00,Wunderground v.1.15,2013-08-14 12:48:00,
2013-08-14 08:50:00,53.8,50.3,30.18,NNW,341,3.0,3.0,88,0.00,,,0.00,Wunderground v.1.15,2013-08-14 12:50:00,
2013-08-14 08:52:00,54.1,50.9,30.17,NNW,341,2.0,4.0,89,0.00,,,0.00,Wunderground v.1.15,2013-08-14 12:52:00,
2013-08-14 08:56:00,54.4,50.3,30.18,NNE,22,3.0,5.0,86,0.00,,,0.00,Wunderground v.1.15,2013-08-14 12:56:00,
2013-08-14 08:58:00,54.6,50.8,30.18,North,8,3.0,5.0,87,0.00,,,0.00,Wunderground v.1.15,2013-08-14 12:58:00,
2013-08-14 09:00:00,54.7,50.6,30.18,North,4,4.0,4.0,86,0.00,,,0.00,Wunderground v.1.15,2013-08-14 13:00:00,
2013-08-14 09:02:00,54.8,50.7,30.18,NNE,17,4.0,4.0,86,0.00,,,0.00,Wunderground v.1.15,2013-08-14 13:02:00,
2013-08-14 09:04:00,54.9,50.5,30.18,NNE,21,4.0,4.0,85,0.00,,,0.00,Wunderground v.1.15,2013-08-14 13:04:00,
2013-08-14 09:06:00,55.0,50.9,30.18,NNE,22,4.0,4.0,86,0.00,,,0.00,Wunderground v.1.15,2013-08-14 13:06:00,
2013-08-14 09:08:00,55.2,51.1,30.18,North,4,4.0,4.0,86,0.00,,,0.00,Wunderground v.1.15,2013-08-14 13:08:00,
2013-08-14 09:12:00,55.4,51.0,30.18,North,4,3.0,4.0,85,0.00,,,0.00,Wunderground v.1.15,2013-08-14 13:12:00,
2013-08-14 09:14:00,55.6,51.5,30.18,North,359,3.0,4.0,86,0.00,,,0.00,Wunderground v.1.15,2013-08-14 13:14:00,
2013-08-14 09:16:00,55.7,50.9,30.18,NNE,25,3.0,4.0,84,0.00,,,0.00,Wunderground v.1.15,2013-08-14 13:16:00,
2013-08-14 09:18:00,55.9,51.5,30.18,NNW,347,3.0,4.0,85,0.00,,,0.00,Wunderground v.1.15,2013-08-14 13:18:00,
2013-08-14 09:20:00,56.0,51.2,30.18,NNE,19,3.0,3.0,84,0.00,,,0.00,Wunderground v.1.15,2013-08-14 13:20:00,
2013-08-14 09:24:00,56.4,51.9,30.18,NNE,27,3.0,4.0,85,0.00,,,0.00,Wunderground v.1.15,2013-08-14 13:24:00,
2013-08-14 09:26:00,56.6,51.8,30.18,NNE,30,3.0,4.0,84,0.00,,,0.00,Wunderground v.1.15,2013-08-14 13:26:00,
2013-08-14 09:28:00,56.8,51.7,30.18,North,4,3.0,4.0,83,0.00,,,0.00,Wunderground v.1.15,2013-08-14 13:28:00,
2013-08-14 09:32:00,57.1,51.3,30.18,NE,38,3.0,5.0,81,0.00,,,0.00,Wunderground v.1.15,2013-08-14 13:32:00,
2013-08-14 09:34:00,57.2,51.4,30.18,NE,52,4.0,6.0,81,0.00,,,0.00,Wunderground v.1.15,2013-08-14 13:34:00,
2013-08-14 09:36:00,57.3,51.9,30.18,NE,45,5.0,6.0,82,0.00,,,0.00,Wunderground v.1.15,2013-08-14 13:36:00,
2013-08-14 09:38:00,57.5,51.7,30.18,NE,55,5.0,6.0,81,0.00,,,0.00,Wunderground v.1.15,2013-08-14 13:38:00,
2013-08-14 09:40:00,57.7,52.2,30.18,NE,43,4.0,4.0,82,0.00,,,0.00,Wunderground v.1.15,2013-08-14 13:40:00,
2013-08-14 09:46:00,58.5,52.7,30.18,North,4,2.0,4.0,81,0.00,,,0.00,Wunderground v.1.15,2013-08-14 13:46:00,
2013-08-14 09:48:00,58.6,52.1,30.18,North,354,3.0,6.0,79,0.00,,,0.00,Wunderground v.1.15,2013-08-14 13:48:00,
2013-08-14 09:50:00,58.6,52.1,30.18,North,350,3.0,5.0,79,0.00,,,0.00,Wunderground v.1.15,2013-08-14 13:50:00,
2013-08-14 09:52:00,58.6,51.4,30.18,North,9,4.0,5.0,77,0.00,,,0.00,Wunderground v.1.15,2013-08-14 13:52:00,
2013-08-14 09:56:00,59.0,52.1,30.18,North,8,4.0,5.0,78,0.00,,,0.00,Wunderground v.1.15,2013-08-14 13:56:00,
2013-08-14 09:58:00,59.1,51.5,30.18,North,359,4.0,8.0,76,0.00,,,0.00,Wunderground v.1.15,2013-08-14 13:58:00,
2013-08-14 10:00:00,59.0,51.4,30.18,NNE,26,5.0,8.0,76,0.00,,,0.00,Wunderground v.1.15,2013-08-14 14:00:00,
2013-08-14 10:04:00,59.4,51.8,30.18,NNE,29,5.0,11.0,76,0.00,,,0.00,Wunderground v.1.15,2013-08-14 14:04:00,
2013-08-14 10:06:00,59.4,51.1,30.18,NE,46,6.0,11.0,74,0.00,,,0.00,Wunderground v.1.15,2013-08-14 14:06:00,
2013-08-14 10:08:00,59.5,51.6,30.18,North,4,5.0,11.0,75,0.00,,,0.00,Wunderground v.1.15,2013-08-14 14:08:00,
2013-08-14 10:10:00,59.5,51.2,30.18,NNE,29,5.0,6.0,74,0.00,,,0.00,Wunderground v.1.15,2013-08-14 14:10:00,
2013-08-14 10:14:00,59.7,52.1,30.18,North,9,5.0,6.0,76,0.00,,,0.00,Wunderground v.1.15,2013-08-14 14:14:00,
2013-08-14 10:16:00,59.8,51.9,30.18,NE,41,5.0,6.0,75,0.00,,,0.00,Wunderground v.1.15,2013-08-14 14:16:00,
2013-08-14 10:18:00,60.0,52.1,30.18,East,87,5.0,6.0,75,0.00,,,0.00,Wunderground v.1.15,2013-08-14 14:18:00,
2013-08-14 10:20:00,60.4,52.4,30.18,NE,45,4.0,4.0,75,0.00,,,0.00,Wunderground v.1.15,2013-08-14 14:20:00,
2013-08-14 10:22:00,60.7,52.4,30.18,ENE,60,3.0,5.0,74,0.00,,,0.00,Wunderground v.1.15,2013-08-14 14:22:00,
2013-08-14 10:26:00,61.1,50.8,30.18,NE,45,4.0,9.0,69,0.00,,,0.00,Wunderground v.1.15,2013-08-14 14:26:00,
2013-08-14 10:28:00,61.1,50.8,30.18,NE,34,5.0,9.0,69,0.00,,,0.00,Wunderground v.1.15,2013-08-14 14:28:00,
2013-08-14 10:34:00,61.0,50.8,30.19,NNE,20,7.0,10.0,69,0.00,,,0.00,Wunderground v.1.15,2013-08-14 14:34:00,
2013-08-14 10:36:00,61.2,50.6,30.19,NE,55,7.0,10.0,68,0.00,,,0.00,Wunderground v.1.15,2013-08-14 14:36:00,
2013-08-14 10:40:00,61.5,50.8,30.18,NE,50,7.0,7.0,68,0.00,,,0.00,Wunderground v.1.15,2013-08-14 14:40:00,
2013-08-14 10:42:00,61.7,51.0,30.18,NE,37,7.0,7.0,68,0.00,,,0.00,Wunderground v.1.15,2013-08-14 14:42:00,
2013-08-14 10:48:00,62.2,50.3,30.18,ENE,59,6.0,7.0,65,0.00,,,0.00,Wunderground v.1.15,2013-08-14 14:48:00,
2013-08-14 10:52:00,62.1,50.2,30.18,NNE,33,6.0,6.0,65,0.00,,,0.00,Wunderground v.1.15,2013-08-14 14:52:00,
2013-08-14 10:56:00,62.2,51.1,30.18,North,4,6.0,9.0,67,0.00,,,0.00,Wunderground v.1.15,2013-08-14 14:56:00,
2013-08-14 11:00:00,62.7,51.2,30.18,NE,48,6.0,7.0,66,0.00,,,0.00,Wunderground v.1.15,2013-08-14 15:00:00,
2013-08-14 11:02:00,62.7,50.8,30.18,NNE,25,6.0,7.0,65,0.00,,,0.00,Wunderground v.1.15,2013-08-14 15:02:00,
2013-08-14 11:06:00,62.9,50.5,30.18,North,350,6.0,8.0,64,0.00,,,0.00,Wunderground v.1.15,2013-08-14 15:06:00,
2013-08-14 11:08:00,62.8,50.0,30.18,NNE,29,7.0,8.0,63,0.00,,,0.00,Wunderground v.1.15,2013-08-14 15:08:00,
2013-08-14 11:14:00,63.0,50.6,30.18,NW,311,7.0,8.0,64,0.00,,,0.00,Wunderground v.1.15,2013-08-14 15:14:00,
2013-08-14 11:16:00,62.9,50.5,30.18,North,354,7.0,8.0,64,0.00,,,0.00,Wunderground v.1.15,2013-08-14 15:16:00,
2013-08-14 11:18:00,62.9,51.4,30.18,NNE,15,7.0,11.0,66,0.00,,,0.00,Wunderground v.1.15,2013-08-14 15:18:00,
2013-08-14 11:20:00,63.1,51.6,30.18,NNE,14,7.0,11.0,66,0.00,,,0.00,Wunderground v.1.15,2013-08-14 15:20:00,
2013-08-14 11:22:00,63.2,50.0,30.18,North,4,8.0,11.0,62,0.00,,,0.00,Wunderground v.1.15,2013-08-14 15:22:00,
2013-08-14 11:24:00,63.1,49.4,30.18,North,354,8.0,11.0,61,0.00,,,0.00,Wunderground v.1.15,2013-08-14 15:24:00,
2013-08-14 11:26:00,63.1,50.3,30.18,NNE,30,8.0,11.0,63,0.00,,,0.00,Wunderground v.1.15,2013-08-14 15:26:00,
2013-08-14 11:32:00,63.8,51.0,30.19,North,10,6.0,11.0,63,0.00,,,0.00,Wunderground v.1.15,2013-08-14 15:32:00,
2013-08-14 11:34:00,63.8,50.5,30.19,North,8,6.0,11.0,62,0.00,,,0.00,Wunderground v.1.15,2013-08-14 15:34:00,
2013-08-14 11:36:00,63.6,50.8,30.19,NNE,21,6.0,11.0,63,0.00,,,0.00,Wunderground v.1.15,2013-08-14 15:36:00,
2013-08-14 11:38:00,63.6,50.3,30.18,NNE,23,7.0,11.0,62,0.00,,,0.00,Wunderground v.1.15,2013-08-14 15:38:00,
2013-08-14 11:40:00,63.7,51.3,30.18,NE,54,7.0,10.0,64,0.00,,,0.00,Wunderground v.1.15,2013-08-14 15:40:00,
2013-08-14 11:44:00,63.7,50.0,30.18,NNE,21,7.0,10.0,61,0.00,,,0.00,Wunderground v.1.15,2013-08-14 15:44:00,
2013-08-14 11:46:00,63.9,50.6,30.18,NNE,18,6.0,10.0,62,0.00,,,0.00,Wunderground v.1.15,2013-08-14 15:46:00,
2013-08-14 11:48:00,64.0,50.3,30.18,NNE,21,7.0,10.0,61,0.00,,,0.00,Wunderground v.1.15,2013-08-14 15:48:00,
2013-08-14 11:50:00,64.1,49.9,30.18,NE,37,7.0,8.0,60,0.00,,,0.00,Wunderground v.1.15,2013-08-14 15:50:00,
2013-08-14 11:54:00,64.3,50.1,30.18,NE,35,7.0,12.0,60,0.00,,,0.00,Wunderground v.1.15,2013-08-14 15:54:00,
2013-08-14 11:56:00,64.2,50.0,30.18,NE,46,8.0,12.0,60,0.00,,,0.00,Wunderground v.1.15,2013-08-14 15:56:00,
2013-08-14 12:00:00,64.2,51.3,30.18,NNE,14,8.0,8.0,63,0.00,,,0.00,Wunderground v.1.15,2013-08-14 16:00:00,
2013-08-14 12:02:00,64.4,51.5,30.18,NE,37,7.0,8.0,63,0.00,,,0.00,Wunderground v.1.15,2013-08-14 16:02:00,
2013-08-14 12:04:00,64.5,50.3,30.18,NNE,18,7.0,11.0,60,0.00,,,0.00,Wunderground v.1.15,2013-08-14 16:04:00,
2013-08-14 12:06:00,64.5,50.3,30.18,NE,46,7.0,11.0,60,0.00,,,0.00,Wunderground v.1.15,2013-08-14 16:06:00,
2013-08-14 12:10:00,64.7,50.5,30.18,NNE,22,7.0,7.0,60,0.00,,,0.00,Wunderground v.1.15,2013-08-14 16:10:00,
2013-08-14 12:12:00,64.8,50.6,30.18,North,4,7.0,7.0,60,0.00,,,0.00,Wunderground v.1.15,2013-08-14 16:12:00,
2013-08-14 12:14:00,64.8,50.1,30.18,NNE,21,7.0,8.0,59,0.00,,,0.00,Wunderground v.1.15,2013-08-14 16:14:00,
2013-08-14 12:18:00,64.5,49.8,30.18,North,359,8.0,9.0,59,0.00,,,0.00,Wunderground v.1.15,2013-08-14 16:18:00,
2013-08-14 12:20:00,64.3,50.1,30.18,North,4,8.0,8.0,60,0.00,,,0.00,Wunderground v.1.15,2013-08-14 16:20:00,
2013-08-14 12:22:00,64.4,49.8,30.18,NE,52,8.0,10.0,59,0.00,,,0.00,Wunderground v.1.15,2013-08-14 16:22:00,
2013-08-14 12:24:00,64.3,49.7,30.18,NNE,26,7.0,10.0,59,0.00,,,0.00,Wunderground v.1.15,2013-08-14 16:24:00,
2013-08-14 12:26:00,64.3,49.7,30.18,NNE,22,7.0,10.0,59,0.00,,,0.00,Wunderground v.1.15,2013-08-14 16:26:00,
2013-08-14 12:28:00,64.4,50.7,30.18,NE,37,6.0,10.0,61,0.00,,,0.00,Wunderground v.1.15,2013-08-14 16:28:00,
2013-08-14 12:30:00,64.4,50.2,30.18,NNE,33,6.0,6.0,60,0.00,,,0.00,Wunderground v.1.15,2013-08-14 16:30:00,
2013-08-14 12:32:00,64.4,50.2,30.18,North,4,6.0,7.0,60,0.00,,,0.00,Wunderground v.1.15,2013-08-14 16:32:00,
2013-08-14 12:36:00,65.0,52.5,30.18,NE,35,5.0,7.0,64,0.00,,,0.00,Wunderground v.1.15,2013-08-14 16:36:00,
2013-08-14 12:38:00,64.9,50.2,30.18,North,354,5.0,7.0,59,0.00,,,0.00,Wunderground v.1.15,2013-08-14 16:38:00,
2013-08-14 12:40:00,64.6,49.5,30.18,NNW,340,5.0,7.0,58,0.00,,,0.00,Wunderground v.1.15,2013-08-14 16:40:00,
2013-08-14 12:42:00,64.3,49.7,30.18,NNE,26,5.0,7.0,59,0.00,,,0.00,Wunderground v.1.15,2013-08-14 16:42:00,
2013-08-14 12:44:00,64.4,50.7,30.18,NNW,339,5.0,7.0,61,0.00,,,0.00,Wunderground v.1.15,2013-08-14 16:44:00,
2013-08-14 12:46:00,64.6,50.4,30.18,NNE,15,5.0,7.0,60,0.00,,,0.00,Wunderground v.1.15,2013-08-14 16:46:00,
2013-08-14 12:50:00,64.7,50.5,30.18,North,4,5.0,5.0,60,0.00,,,0.00,Wunderground v.1.15,2013-08-14 16:50:00,
2013-08-14 12:52:00,64.8,51.5,30.18,NNE,14,5.0,5.0,62,0.00,,,0.00,Wunderground v.1.15,2013-08-14 16:52:00,
2013-08-14 12:54:00,65.2,52.3,30.18,NE,34,5.0,8.0,63,0.00,,,0.00,Wunderground v.1.15,2013-08-14 16:54:00,
2013-08-14 12:56:00,65.5,51.2,30.18,NNW,347,5.0,8.0,60,0.00,,,0.00,Wunderground v.1.15,2013-08-14 16:56:00,
2013-08-14 13:02:00,66.2,50.0,30.18,NNE,15,6.0,9.0,56,0.00,,,0.00,Wunderground v.1.15,2013-08-14 17:02:00,
2013-08-14 13:04:00,66.3,51.1,30.18,NNE,16,5.0,9.0,58,0.00,,,0.00,Wunderground v.1.15,2013-08-14 17:04:00,
2013-08-14 13:06:00,66.2,50.5,30.17,NE,39,6.0,13.0,57,0.00,,,0.00,Wunderground v.1.15,2013-08-14 17:06:00,
2013-08-14 13:08:00,66.2,50.0,30.17,NNE,19,6.0,13.0,56,0.00,,,0.00,Wunderground v.1.15,2013-08-14 17:08:00,
2013-08-14 13:10:00,66.3,51.1,30.17,NNE,18,7.0,8.0,58,0.00,,,0.00,Wunderground v.1.15,2013-08-14 17:10:00,
2013-08-14 13:14:00,66.6,48.9,30.17,NNE,21,8.0,13.0,53,0.00,,,0.00,Wunderground v.1.15,2013-08-14 17:14:00,
2013-08-14 13:16:00,66.4,49.2,30.17,NNE,31,8.0,13.0,54,0.00,,,0.00,Wunderground v.1.15,2013-08-14 17:16:00,
2013-08-14 13:20:00,66.2,50.5,30.17,NE,44,8.0,12.0,57,0.00,,,0.00,Wunderground v.1.15,2013-08-14 17:20:00,
2013-08-14 13:22:00,66.3,49.6,30.17,East,82,9.0,12.0,55,0.00,,,0.00,Wunderground v.1.15,2013-08-14 17:22:00,
2013-08-14 13:24:00,66.6,49.4,30.17,NE,34,8.0,12.0,54,0.00,,,0.00,Wunderground v.1.15,2013-08-14 17:24:00,
2013-08-14 13:28:00,67.2,50.0,30.17,NNE,25,6.0,12.0,54,0.00,,,0.00,Wunderground v.1.15,2013-08-14 17:28:00,
2013-08-14 13:30:00,67.3,50.1,30.17,NE,46,5.0,5.0,54,0.00,,,0.00,Wunderground v.1.15,2013-08-14 17:30:00,
2013-08-14 13:32:00,67.5,48.7,30.17,ENE,66,5.0,8.0,51,0.00,,,0.00,Wunderground v.1.15,2013-08-14 17:32:00,
2013-08-14 13:34:00,67.6,48.8,30.17,ENE,73,5.0,8.0,51,0.00,,,0.00,Wunderground v.1.15,2013-08-14 17:34:00,
2013-08-14 13:40:00,67.9,49.1,30.17,NE,53,7.0,7.0,51,0.00,,,0.00,Wunderground v.1.15,2013-08-14 17:40:00,
2013-08-14 13:42:00,67.9,48.0,30.17,NNW,345,7.0,7.0,49,0.00,,,0.00,Wunderground v.1.15,2013-08-14 17:42:00,
2013-08-14 13:44:00,68.1,48.8,30.17,ENE,77,7.0,7.0,50,0.00,,,0.00,Wunderground v.1.15,2013-08-14 17:44:00,
2013-08-14 13:46:00,68.0,48.1,30.17,East,87,7.0,7.0,49,0.00,,,0.00,Wunderground v.1.15,2013-08-14 17:46:00,
2013-08-14 13:48:00,68.0,49.2,30.16,NE,42,6.0,7.0,51,0.00,,,0.00,Wunderground v.1.15,2013-08-14 17:48:00,
2013-08-14 13:52:00,68.0,48.7,30.16,ENE,62,7.0,7.0,50,0.00,,,0.00,Wunderground v.1.15,2013-08-14 17:52:00,
2013-08-14 13:56:00,67.7,49.4,30.16,East,79,7.0,10.0,52,0.00,,,0.00,Wunderground v.1.15,2013-08-14 17:56:00,
2013-08-14 13:58:00,67.8,49.5,30.16,NE,48,7.0,10.0,52,0.00,,,0.00,Wunderground v.1.15,2013-08-14 17:58:00,
2013-08-14 14:00:00,68.1,50.3,30.17,NE,41,7.0,7.0,53,0.00,,,0.00,Wunderground v.1.15,2013-08-14 18:00:00,
2013-08-14 14:02:00,68.0,49.2,30.16,North,11,6.0,7.0,51,0.00,,,0.00,Wunderground v.1.15,2013-08-14 18:02:00,
2013-08-14 14:04:00,67.8,49.5,30.16,ENE,73,7.0,7.0,52,0.00,,,0.00,Wunderground v.1.15,2013-08-14 18:04:00,
2013-08-14 14:08:00,68.3,48.9,30.17,NE,37,6.0,12.0,50,0.00,,,0.00,Wunderground v.1.15,2013-08-14 18:08:00,
2013-08-14 14:10:00,68.4,49.6,30.16,NE,49,6.0,7.0,51,0.00,,,0.00,Wunderground v.1.15,2013-08-14 18:10:00,
2013-08-14 14:13:00,68.4,50.1,30.16,NE,37,6.0,12.0,52,0.00,,,0.00,Wunderground v.1.15,2013-08-14 18:13:00,
2013-08-14 14:17:00,67.9,49.1,30.16,NE,50,7.0,12.0,51,0.00,,,0.00,Wunderground v.1.15,2013-08-14 18:17:00,
2013-08-14 14:19:00,67.9,50.1,30.16,East,87,7.0,12.0,53,0.00,,,0.00,Wunderground v.1.15,2013-08-14 18:19:00,
2013-08-14 14:20:00,68.3,48.9,30.16,NNW,346,6.0,6.0,50,0.00,,,0.00,Wunderground v.1.15,2013-08-14 18:20:00,
2013-08-14 14:23:00,68.6,49.7,30.16,NNE,29,6.0,6.0,51,0.00,,,0.00,Wunderground v.1.15,2013-08-14 18:23:00,
2013-08-14 14:24:00,68.6,49.2,30.16,NE,37,6.0,9.0,50,0.00,,,0.00,Wunderground v.1.15,2013-08-14 18:24:00,
2013-08-14 14:26:00,68.6,49.7,30.16,NE,48,6.0,9.0,51,0.00,,,0.00,Wunderground v.1.15,2013-08-14 18:26:00,
2013-08-14 14:28:00,68.6,50.3,30.16,North,10,6.0,9.0,52,0.00,,,0.00,Wunderground v.1.15,2013-08-14 18:28:00,
2013-08-14 14:31:00,68.7,49.8,30.16,NNE,13,7.0,7.0,51,0.00,,,0.00,Wunderground v.1.15,2013-08-14 18:31:00,
2013-08-14 14:33:00,68.6,49.2,30.16,North,4,8.0,8.0,50,0.00,,,0.00,Wunderground v.1.15,2013-08-14 18:33:00,
2013-08-14 14:34:00,68.4,49.6,30.16,NNE,25,7.0,8.0,51,0.00,,,0.00,Wunderground v.1.15,2013-08-14 18:34:00,
2013-08-14 14:38:00,68.2,49.9,30.16,North,4,8.0,8.0,52,0.00,,,0.00,Wunderground v.1.15,2013-08-14 18:38:00,
2013-08-14 14:40:00,68.4,50.1,30.16,NNE,27,7.0,7.0,52,0.00,,,0.00,Wunderground v.1.15,2013-08-14 18:40:00,
2013-08-14 14:42:00,68.8,49.9,30.16,NE,34,6.0,11.0,51,0.00,,,0.00,Wunderground v.1.15,2013-08-14 18:42:00,
2013-08-14 14:47:00,68.9,48.9,30.16,North,350,5.0,11.0,49,0.00,,,0.00,Wunderground v.1.15,2013-08-14 18:47:00,
2013-08-14 14:49:00,68.9,49.5,30.16,ENE,76,4.0,11.0,50,0.00,,,0.00,Wunderground v.1.15,2013-08-14 18:49:00,
2013-08-14 14:52:00,69.4,49.4,30.16,ESE,102,5.0,5.0,49,0.00,,,0.00,Wunderground v.1.15,2013-08-14 18:52:00,
2013-08-14 14:54:00,69.9,49.9,30.16,NE,42,5.0,8.0,49,0.00,,,0.00,Wunderground v.1.15,2013-08-14 18:54:00,
2013-08-14 14:56:00,69.9,50.4,30.16,NE,34,5.0,8.0,50,0.00,,,0.00,Wunderground v.1.15,2013-08-14 18:56:00,
2013-08-14 15:03:00,69.0,50.1,30.16,NE,52,6.0,6.0,51,0.00,,,0.00,Wunderground v.1.15,2013-08-14 19:03:00,
2013-08-14 15:06:00,69.1,48.6,30.16,ENE,57,6.0,7.0,48,0.00,,,0.00,Wunderground v.1.15,2013-08-14 19:06:00,
2013-08-14 15:08:00,69.2,50.8,30.16,NNE,33,6.0,7.0,52,0.00,,,0.00,Wunderground v.1.15,2013-08-14 19:08:00,
2013-08-14 15:12:00,69.6,49.0,30.15,NNE,33,5.0,6.0,48,0.00,,,0.00,Wunderground v.1.15,2013-08-14 19:12:00,
2013-08-14 15:14:00,69.6,49.0,30.15,North,8,5.0,10.0,48,0.00,,,0.00,Wunderground v.1.15,2013-08-14 19:14:00,
2013-08-14 15:16:00,69.7,49.7,30.15,NE,44,4.0,10.0,49,0.00,,,0.00,Wunderground v.1.15,2013-08-14 19:16:00,
2013-08-14 15:20:00,69.8,49.2,30.16,NNE,30,5.0,5.0,48,0.00,,,0.00,Wunderground v.1.15,2013-08-14 19:20:00,
2013-08-14 15:22:00,69.8,49.2,30.15,NE,48,5.0,5.0,48,0.00,,,0.00,Wunderground v.1.15,2013-08-14 19:22:00,
2013-08-14 15:24:00,70.0,50.5,30.15,NE,50,4.0,5.0,50,0.00,,,0.00,Wunderground v.1.15,2013-08-14 19:24:00,
2013-08-14 15:28:00,70.5,50.4,30.16,North,359,4.0,5.0,49,0.00,,,0.00,Wunderground v.1.15,2013-08-14 19:28:00,
2013-08-14 15:32:00,70.5,49.9,30.16,North,4,4.0,4.0,48,0.00,,,0.00,Wunderground v.1.15,2013-08-14 19:32:00,
2013-08-14 15:34:00,70.6,50.5,30.16,NE,43,4.0,5.0,49,0.00,,,0.00,Wunderground v.1.15,2013-08-14 19:34:00,
2013-08-14 15:38:00,70.9,51.9,30.15,NE,34,3.0,5.0,51,0.00,,,0.00,Wunderground v.1.15,2013-08-14 19:38:00,
2013-08-14 15:42:00,71.1,49.8,30.15,ESE,105,4.0,4.0,47,0.00,,,0.00,Wunderground v.1.15,2013-08-14 19:42:00,
2013-08-14 15:44:00,71.1,49.3,30.15,ESE,116,5.0,9.0,46,0.00,,,0.00,Wunderground v.1.15,2013-08-14 19:44:00,
2013-08-14 15:46:00,71.2,49.9,30.16,NNE,16,5.0,9.0,47,0.00,,,0.00,Wunderground v.1.15,2013-08-14 19:46:00,
2013-08-14 15:50:00,70.8,50.1,30.15,ENE,59,5.0,5.0,48,0.00,,,0.00,Wunderground v.1.15,2013-08-14 19:50:00,
2013-08-14 15:52:00,70.8,48.4,30.15,SE,128,5.0,5.0,45,0.00,,,0.00,Wunderground v.1.15,2013-08-14 19:52:00,
2013-08-14 15:56:00,71.3,50.0,30.15,East,82,4.0,5.0,47,0.00,,,0.00,Wunderground v.1.15,2013-08-14 19:56:00,
2013-08-14 15:58:00,71.6,51.4,30.15,NNE,13,4.0,6.0,49,0.00,,,0.00,Wunderground v.1.15,2013-08-14 19:58:00,
2013-08-14 16:02:00,71.1,48.7,30.15,North,9,4.0,5.0,45,0.00,,,0.00,Wunderground v.1.15,2013-08-14 20:02:00,
2013-08-14 16:05:00,70.6,49.4,30.15,NE,45,5.0,5.0,47,0.00,,,0.00,Wunderground v.1.15,2013-08-14 20:05:00,
2013-08-14 16:08:00,70.2,50.1,30.15,NE,43,5.0,6.0,49,0.00,,,0.00,Wunderground v.1.15,2013-08-14 20:08:00,
2013-08-14 16:10:00,70.3,49.1,30.15,North,10,5.0,5.0,47,0.00,,,0.00,Wunderground v.1.15,2013-08-14 20:10:00,
2013-08-14 16:12:00,70.4,49.8,30.15,NNE,19,5.0,7.0,48,0.00,,,0.00,Wunderground v.1.15,2013-08-14 20:12:00,
2013-08-14 16:16:00,70.5,50.4,30.15,NNE,22,5.0,7.0,49,0.00,,,0.00,Wunderground v.1.15,2013-08-14 20:16:00,
2013-08-14 16:22:00,71.1,50.4,30.15,NE,53,5.0,10.0,48,0.00,,,0.00,Wunderground v.1.15,2013-08-14 20:22:00,
2013-08-14 16:24:00,71.0,48.6,30.15,ENE,62,5.0,10.0,45,0.00,,,0.00,Wunderground v.1.15,2013-08-14 20:24:00,
2013-08-14 16:26:00,70.8,49.6,30.15,NNE,31,5.0,10.0,47,0.00,,,0.00,Wunderground v.1.15,2013-08-14 20:26:00,
2013-08-14 16:33:00,71.3,50.6,30.15,NE,50,4.0,5.0,48,0.00,,,0.00,Wunderground v.1.15,2013-08-14 20:33:00,
2013-08-14 16:34:00,71.3,50.0,30.15,ENE,64,4.0,11.0,47,0.00,,,0.00,Wunderground v.1.15,2013-08-14 20:34:00,
2013-08-14 16:36:00,71.1,49.3,30.14,NE,38,5.0,11.0,46,0.00,,,0.00,Wunderground v.1.15,2013-08-14 20:36:00,
2013-08-14 16:40:00,70.6,49.4,30.15,NW,323,6.0,6.0,47,0.00,,,0.00,Wunderground v.1.15,2013-08-14 20:40:00,
2013-08-14 16:46:00,70.3,47.9,30.15,NNE,18,7.0,10.0,45,0.00,,,0.00,Wunderground v.1.15,2013-08-14 20:46:00,
2013-08-14 16:49:00,70.2,48.4,30.14,NE,40,7.0,10.0,46,0.00,,,0.00,Wunderground v.1.15,2013-08-14 20:49:00,
2013-08-14 16:50:00,70.2,48.4,30.14,ESE,116,6.0,6.0,46,0.00,,,0.00,Wunderground v.1.15,2013-08-14 20:50:00,
2013-08-14 16:52:00,70.3,49.1,30.14,ENE,73,6.0,6.0,47,0.00,,,0.00,Wunderground v.1.15,2013-08-14 20:52:00,
2013-08-14 16:54:00,70.7,49.5,30.14,East,81,5.0,9.0,47,0.00,,,0.00,Wunderground v.1.15,2013-08-14 20:54:00,
2013-08-14 16:58:00,71.2,49.9,30.14,NE,46,4.0,9.0,47,0.00,,,0.00,Wunderground v.1.15,2013-08-14 20:58:00,
2013-08-14 17:00:00,71.2,48.8,30.14,NNE,19,4.0,10.0,45,0.00,,,0.00,Wunderground v.1.15,2013-08-14 21:00:00,
2013-08-14 17:04:00,70.9,49.1,30.14,NE,49,6.0,10.0,46,0.00,,,0.00,Wunderground v.1.15,2013-08-14 21:04:00,
2013-08-14 17:06:00,70.7,48.9,30.14,NNE,27,6.0,10.0,46,0.00,,,0.00,Wunderground v.1.15,2013-08-14 21:06:00,
2013-08-14 17:08:00,70.5,48.7,30.14,NE,40,7.0,10.0,46,0.00,,,0.00,Wunderground v.1.15,2013-08-14 21:08:00,
2013-08-14 17:10:00,70.6,48.8,30.14,East,96,6.0,6.0,46,0.00,,,0.00,Wunderground v.1.15,2013-08-14 21:10:00,
2013-08-14 17:14:00,71.7,51.0,30.13,NE,49,4.0,6.0,48,0.00,,,0.00,Wunderground v.1.15,2013-08-14 21:14:00,
2013-08-14 17:16:00,72.2,49.7,30.14,NNE,26,3.0,12.0,45,0.00,,,0.00,Wunderground v.1.15,2013-08-14 21:16:00,
2013-08-14 17:18:00,71.9,48.2,30.13,NNE,19,4.0,12.0,43,0.00,,,0.00,Wunderground v.1.15,2013-08-14 21:18:00,
2013-08-14 17:20:00,71.7,49.8,30.14,NNE,29,4.0,6.0,46,0.00,,,0.00,Wunderground v.1.15,2013-08-14 21:20:00,
2013-08-14 17:22:00,71.5,49.0,30.13,NE,37,5.0,6.0,45,0.00,,,0.00,Wunderground v.1.15,2013-08-14 21:22:00,
2013-08-14 17:24:00,71.5,49.6,30.13,North,9,5.0,7.0,46,0.00,,,0.00,Wunderground v.1.15,2013-08-14 21:24:00,
2013-08-14 17:26:00,71.4,48.9,30.14,NNE,13,6.0,7.0,45,0.00,,,0.00,Wunderground v.1.15,2013-08-14 21:26:00,
2013-08-14 17:30:00,71.2,49.9,30.13,North,9,5.0,6.0,47,0.00,,,0.00,Wunderground v.1.15,2013-08-14 21:30:00,
2013-08-14 17:32:00,71.1,49.8,30.13,NNW,328,5.0,6.0,47,0.00,,,0.00,Wunderground v.1.15,2013-08-14 21:32:00,
2013-08-14 17:34:00,71.0,49.7,30.14,NNW,347,5.0,6.0,47,0.00,,,0.00,Wunderground v.1.15,2013-08-14 21:34:00,
2013-08-14 17:36:00,71.1,49.8,30.14,North,354,5.0,6.0,47,0.00,,,0.00,Wunderground v.1.15,2013-08-14 21:36:00,
2013-08-14 17:40:00,71.4,50.1,30.14,NE,35,5.0,8.0,47,0.00,,,0.00,Wunderground v.1.15,2013-08-14 21:40:00,
2013-08-14 17:42:00,71.2,49.4,30.14,ENE,59,5.0,12.0,46,0.00,,,0.00,Wunderground v.1.15,2013-08-14 21:42:00,
2013-08-14 17:44:00,71.0,49.7,30.14,NE,43,6.0,12.0,47,0.00,,,0.00,Wunderground v.1.15,2013-08-14 21:44:00,
2013-08-14 17:50:00,71.2,49.4,30.14,NE,51,6.0,7.0,46,0.00,,,0.00,Wunderground v.1.15,2013-08-14 21:50:00,
2013-08-14 17:52:00,71.2,49.9,30.14,NE,50,5.0,7.0,47,0.00,,,0.00,Wunderground v.1.15,2013-08-14 21:52:00,
2013-08-14 17:54:00,71.2,50.5,30.14,North,354,5.0,7.0,48,0.00,,,0.00,Wunderground v.1.15,2013-08-14 21:54:00,
2013-08-14 17:56:00,71.2,50.5,30.14,NNE,28,5.0,7.0,48,0.00,,,0.00,Wunderground v.1.15,2013-08-14 21:56:00,
2013-08-14 17:58:00,71.3,50.6,30.14,NE,37,5.0,7.0,48,0.00,,,0.00,Wunderground v.1.15,2013-08-14 21:58:00,
2013-08-14 18:02:00,71.5,50.2,30.14,NNE,25,4.0,9.0,47,0.00,,,0.00,Wunderground v.1.15,2013-08-14 22:02:00,
2013-08-14 18:04:00,71.3,50.6,30.14,NNE,13,5.0,9.0,48,0.00,,,0.00,Wunderground v.1.15,2013-08-14 22:04:00,
2013-08-14 18:06:00,71.3,49.4,30.13,NE,51,5.0,9.0,46,0.00,,,0.00,Wunderground v.1.15,2013-08-14 22:06:00,
2013-08-14 18:10:00,71.1,49.8,30.14,NE,34,5.0,5.0,47,0.00,,,0.00,Wunderground v.1.15,2013-08-14 22:10:00,
2013-08-14 18:14:00,71.1,49.8,30.14,NE,51,5.0,5.0,47,0.00,,,0.00,Wunderground v.1.15,2013-08-14 22:14:00,
2013-08-14 18:16:00,71.2,48.8,30.14,NE,46,4.0,5.0,45,0.00,,,0.00,Wunderground v.1.15,2013-08-14 22:16:00,
2013-08-14 18:20:00,71.3,49.4,30.14,NE,50,4.0,6.0,46,0.00,,,0.00,Wunderground v.1.15,2013-08-14 22:20:00,
2013-08-14 18:22:00,71.2,49.9,30.13,NE,45,4.0,7.0,47,0.00,,,0.00,Wunderground v.1.15,2013-08-14 22:22:00,
2013-08-14 18:24:00,71.1,49.8,30.13,North,11,4.0,7.0,47,0.00,,,0.00,Wunderground v.1.15,2013-08-14 22:24:00,
2013-08-14 18:26:00,71.1,49.3,30.13,ENE,62,5.0,7.0,46,0.00,,,0.00,Wunderground v.1.15,2013-08-14 22:26:00,
2013-08-14 18:31:00,71.4,50.1,30.13,North,359,5.0,5.0,47,0.00,,,0.00,Wunderground v.1.15,2013-08-14 22:31:00,
2013-08-14 18:34:00,71.4,50.7,30.13,NNE,17,4.0,5.0,48,0.00,,,0.00,Wunderground v.1.15,2013-08-14 22:34:00,
2013-08-14 18:38:00,71.3,50.0,30.13,North,4,4.0,5.0,47,0.00,,,0.00,Wunderground v.1.15,2013-08-14 22:38:00,
2013-08-14 18:40:00,71.2,50.5,30.13,NE,45,4.0,5.0,48,0.00,,,0.00,Wunderground v.1.15,2013-08-14 22:40:00,
2013-08-14 18:42:00,71.0,50.9,30.13,NNE,31,4.0,5.0,49,0.00,,,0.00,Wunderground v.1.15,2013-08-14 22:42:00,
2013-08-14 18:48:00,70.4,51.4,30.13,NNE,27,4.0,6.0,51,0.00,,,0.00,Wunderground v.1.15,2013-08-14 22:48:00,
2013-08-14 18:50:00,70.1,50.0,30.13,NNE,25,4.0,4.0,49,0.00,,,0.00,Wunderground v.1.15,2013-08-14 22:50:00,
2013-08-14 18:54:00,69.8,50.3,30.13,NNE,19,4.0,4.0,50,0.00,,,0.00,Wunderground v.1.15,2013-08-14 22:54:00,
2013-08-14 18:56:00,69.6,50.1,30.13,NNE,14,3.0,4.0,50,0.00,,,0.00,Wunderground v.1.15,2013-08-14 22:56:00,
2013-08-14 18:58:00,69.3,50.4,30.13,North,354,3.0,4.0,51,0.00,,,0.00,Wunderground v.1.15,2013-08-14 22:58:00,
2013-08-14 19:01:00,69.0,50.1,30.13,North,4,3.0,3.0,51,0.00,,,0.00,Wunderground v.1.15,2013-08-14 23:01:00,
2013-08-14 19:04:00,68.6,50.3,30.13,NNE,16,3.0,4.0,52,0.00,,,0.00,Wunderground v.1.15,2013-08-14 23:04:00,
2013-08-14 19:06:00,68.5,50.2,30.13,North,4,3.0,4.0,52,0.00,,,0.00,Wunderground v.1.15,2013-08-14 23:06:00,
2013-08-14 19:08:00,68.2,49.9,30.13,North,4,3.0,4.0,52,0.00,,,0.00,Wunderground v.1.15,2013-08-14 23:08:00,
2013-08-14 19:10:00,68.0,50.2,30.13,NNE,27,3.0,4.0,53,0.00,,,0.00,Wunderground v.1.15,2013-08-14 23:10:00,
2013-08-14 19:12:00,67.8,50.0,30.13,North,10,3.0,4.0,53,0.00,,,0.00,Wunderground v.1.15,2013-08-14 23:12:00,
2013-08-14 19:16:00,67.5,50.3,30.13,North,354,3.0,4.0,54,0.00,,,0.00,Wunderground v.1.15,2013-08-14 23:16:00,
2013-08-14 19:18:00,67.4,50.2,30.13,North,359,3.0,4.0,54,0.00,,,0.00,Wunderground v.1.15,2013-08-14 23:18:00,
2013-08-14 19:20:00,67.3,50.6,30.13,North,359,3.0,3.0,55,0.00,,,0.00,Wunderground v.1.15,2013-08-14 23:20:00,
2013-08-14 19:24:00,67.2,50.5,30.13,North,8,2.0,4.0,55,0.00,,,0.00,Wunderground v.1.15,2013-08-14 23:24:00,
2013-08-14 19:26:00,67.2,51.0,30.13,North,354,2.0,4.0,56,0.00,,,0.00,Wunderground v.1.15,2013-08-14 23:26:00,
2013-08-14 19:30:00,67.2,51.0,30.13,North,354,2.0,4.0,56,0.00,,,0.00,Wunderground v.1.15,2013-08-14 23:30:00,
2013-08-14 19:32:00,67.2,50.5,30.13,North,8,2.0,4.0,55,0.00,,,0.00,Wunderground v.1.15,2013-08-14 23:32:00,
2013-08-14 19:36:00,67.3,51.1,30.13,North,8,2.0,4.0,56,0.00,,,0.00,Wunderground v.1.15,2013-08-14 23:36:00,
2013-08-14 19:38:00,67.4,51.2,30.13,NNE,12,2.0,4.0,56,0.00,,,0.00,Wunderground v.1.15,2013-08-14 23:38:00,
2013-08-14 19:40:00,67.4,51.6,30.13,NNE,12,2.0,4.0,57,0.00,,,0.00,Wunderground v.1.15,2013-08-14 23:40:00,
2013-08-14 19:42:00,67.4,51.2,30.13,North,359,2.0,4.0,56,0.00,,,0.00,Wunderground v.1.15,2013-08-14 23:42:00,
2013-08-14 19:46:00,67.4,51.6,30.13,North,10,2.0,4.0,57,0.00,,,0.00,Wunderground v.1.15,2013-08-14 23:46:00,
2013-08-14 19:48:00,67.3,52.0,30.13,NNE,13,2.0,4.0,58,0.00,,,0.00,Wunderground v.1.15,2013-08-14 23:48:00,
2013-08-14 19:50:00,67.3,51.5,30.13,North,4,2.0,4.0,57,0.00,,,0.00,Wunderground v.1.15,2013-08-14 23:50:00,
2013-08-14 19:54:00,67.3,52.0,30.13,North,4,2.0,4.0,58,0.00,,,0.00,Wunderground v.1.15,2013-08-14 23:54:00,
2013-08-14 19:56:00,67.4,52.1,30.13,North,4,1.0,4.0,58,0.00,,,0.00,Wunderground v.1.15,2013-08-14 23:56:00,
2013-08-14 20:00:00,68.1,52.8,30.13,NNE,33,1.0,4.0,58,0.00,,,0.00,Wunderground v.1.15,2013-08-15 00:00:00,
2013-08-14 20:02:00,68.3,52.9,30.13,NNE,33,0.0,4.0,58,0.00,,,0.00,Wunderground v.1.15,2013-08-15 00:02:00,
2013-08-14 20:06:00,68.8,52.9,30.13,NNE,27,0.0,4.0,57,0.00,,,0.00,Wunderground v.1.15,2013-08-15 00:06:00,
2013-08-14 20:10:00,69.0,52.6,30.13,NNE,27,1.0,4.0,56,0.00,,,0.00,Wunderground v.1.15,2013-08-15 00:10:00,
2013-08-14 20:12:00,68.9,53.0,30.13,NNE,27,1.0,4.0,57,0.00,,,0.00,Wunderground v.1.15,2013-08-15 00:12:00,
2013-08-14 20:16:00,68.7,52.8,30.13,NNE,27,1.0,4.0,57,0.00,,,0.00,Wunderground v.1.15,2013-08-15 00:16:00,
2013-08-14 20:20:00,68.4,52.6,30.13,NNE,28,1.0,4.0,57,0.00,,,0.00,Wunderground v.1.15,2013-08-15 00:20:00,
2013-08-14 20:24:00,68.1,52.3,30.13,NNE,29,2.0,4.0,57,0.00,,,0.00,Wunderground v.1.15,2013-08-15 00:24:00,
2013-08-14 20:28:00,67.7,52.4,30.13,NNE,29,1.0,4.0,58,0.00,,,0.00,Wunderground v.1.15,2013-08-15 00:28:00,
2013-08-14 20:30:00,67.6,52.8,30.13,NNE,29,1.0,4.0,59,0.00,,,0.00,Wunderground v.1.15,2013-08-15 00:30:00,
2013-08-14 20:32:00,67.5,52.7,30.13,NNE,29,1.0,4.0,59,0.00,,,0.00,Wunderground v.1.15,2013-08-15 00:32:00,
2013-08-14 20:36:00,67.2,53.3,30.13,NNE,29,0.0,4.0,61,0.00,,,0.00,Wunderground v.1.15,2013-08-15 00:36:00,
2013-08-14 20:38:00,67.0,53.1,30.13,NNE,29,0.0,4.0,61,0.00,,,0.00,Wunderground v.1.15,2013-08-15 00:38:00,
2013-08-14 20:40:00,66.6,52.3,30.13,NNE,32,1.0,4.0,60,0.00,,,0.00,Wunderground v.1.15,2013-08-15 00:40:00,
2013-08-14 20:44:00,66.1,52.7,30.13,NNE,32,1.0,4.0,62,0.00,,,0.00,Wunderground v.1.15,2013-08-15 00:44:00,
2013-08-14 20:46:00,65.9,52.5,30.13,NNE,32,2.0,4.0,62,0.00,,,0.00,Wunderground v.1.15,2013-08-15 00:46:00,
2013-08-14 20:48:00,65.6,52.7,30.13,NNE,32,2.0,4.0,63,0.00,,,0.00,Wunderground v.1.15,2013-08-15 00:48:00,
2013-08-14 20:54:00,65.0,52.5,30.13,NNE,32,1.0,4.0,64,0.00,,,0.00,Wunderground v.1.15,2013-08-15 00:54:00,
2013-08-14 20:56:00,64.9,52.4,30.13,NNE,32,1.0,4.0,64,0.00,,,0.00,Wunderground v.1.15,2013-08-15 00:56:00,
2013-08-14 21:00:00,64.7,52.7,30.13,NNE,32,1.0,4.0,65,0.00,,,0.00,Wunderground v.1.15,2013-08-15 01:00:00,
2013-08-14 21:02:00,64.4,52.8,30.13,NNE,32,1.0,4.0,66,0.00,,,0.00,Wunderground v.1.15,2013-08-15 01:02:00,
2013-08-14 21:04:00,64.2,53.4,30.13,NNE,14,2.0,4.0,68,0.00,,,0.00,Wunderground v.1.15,2013-08-15 01:04:00,
2013-08-14 21:08:00,63.8,53.8,30.14,North,359,2.0,4.0,70,0.00,,,0.00,Wunderground v.1.15,2013-08-15 01:08:00,
2013-08-14 21:10:00,63.6,53.6,30.14,North,359,2.0,2.0,70,0.00,,,0.00,Wunderground v.1.15,2013-08-15 01:10:00,
2013-08-14 21:12:00,63.4,53.4,30.14,North,359,1.0,4.0,70,0.00,,,0.00,Wunderground v.1.15,2013-08-15 01:12:00,
2013-08-14 21:14:00,63.3,53.3,30.14,North,359,1.0,4.0,70,0.00,,,0.00,Wunderground v.1.15,2013-08-15 01:14:00,
2013-08-14 21:16:00,63.2,53.3,30.14,North,359,1.0,4.0,70,0.00,,,0.00,Wunderground v.1.15,2013-08-15 01:16:00,
2013-08-14 21:20:00,63.0,53.4,30.14,North,359,0.0,4.0,71,0.00,,,0.00,Wunderground v.1.15,2013-08-15 01:20:00,
2013-08-14 21:22:00,62.9,53.4,30.14,North,359,0.0,4.0,71,0.00,,,0.00,Wunderground v.1.15,2013-08-15 01:22:00,
2013-08-14 21:28:00,62.7,52.8,30.14,North,359,1.0,4.0,70,0.00,,,0.00,Wunderground v.1.15,2013-08-15 01:28:00,
2013-08-14 21:34:00,62.5,52.6,30.14,North,359,1.0,4.0,70,0.00,,,0.00,Wunderground v.1.15,2013-08-15 01:34:00,
2013-08-14 21:38:00,62.3,52.8,30.14,North,359,0.0,4.0,71,0.00,,,0.00,Wunderground v.1.15,2013-08-15 01:38:00,
2013-08-14 21:40:00,62.1,53.0,30.14,North,359,0.0,4.0,72,0.00,,,0.00,Wunderground v.1.15,2013-08-15 01:40:00,
2013-08-14 21:42:00,62.1,53.0,30.14,North,359,0.0,4.0,72,0.00,,,0.00,Wunderground v.1.15,2013-08-15 01:42:00,
2013-08-14 21:44:00,62.0,52.9,30.14,NNE,19,1.0,4.0,72,0.00,,,0.00,Wunderground v.1.15,2013-08-15 01:44:00,
2013-08-14 21:46:00,61.9,52.4,30.14,NNE,20,1.0,4.0,71,0.00,,,0.00,Wunderground v.1.15,2013-08-15 01:46:00,
2013-08-14 21:50:00,61.8,52.3,30.15,NNE,20,1.0,4.0,71,0.00,,,0.00,Wunderground v.1.15,2013-08-15 01:50:00,
2013-08-14 21:52:00,61.7,52.2,30.15,NNE,28,2.0,4.0,71,0.00,,,0.00,Wunderground v.1.15,2013-08-15 01:52:00,
2013-08-14 21:58:00,61.7,52.2,30.15,NNE,31,2.0,4.0,71,0.00,,,0.00,Wunderground v.1.15,2013-08-15 01:58:00,
2013-08-14 22:00:00,61.7,52.2,30.15,North,359,2.0,2.0,71,0.00,,,0.00,Wunderground v.1.15,2013-08-15 02:00:00,
2013-08-14 22:04:00,61.5,52.4,30.15,NNW,345,2.0,4.0,72,0.00,,,0.00,Wunderground v.1.15,2013-08-15 02:04:00,
2013-08-14 22:08:00,61.3,52.2,30.15,North,4,2.0,4.0,72,0.00,,,0.00,Wunderground v.1.15,2013-08-15 02:08:00,
2013-08-14 22:12:00,61.2,52.1,30.15,North,4,2.0,4.0,72,0.00,,,0.00,Wunderground v.1.15,2013-08-15 02:12:00,
2013-08-14 22:14:00,61.1,52.0,30.15,North,4,2.0,4.0,72,0.00,,,0.00,Wunderground v.1.15,2013-08-15 02:14:00,
2013-08-14 22:18:00,60.9,51.8,30.15,North,4,1.0,4.0,72,0.00,,,0.00,Wunderground v.1.15,2013-08-15 02:18:00,
2013-08-14 22:20:00,60.9,51.8,30.16,North,4,0.0,4.0,72,0.00,,,0.00,Wunderground v.1.15,2013-08-15 02:20:00,
2013-08-14 22:22:00,60.8,52.1,30.15,North,4,0.0,4.0,73,0.00,,,0.00,Wunderground v.1.15,2013-08-15 02:22:00,
2013-08-14 22:24:00,60.7,51.6,30.16,North,4,0.0,4.0,72,0.00,,,0.00,Wunderground v.1.15,2013-08-15 02:24:00,
2013-08-14 22:28:00,60.6,51.9,30.16,North,4,0.0,4.0,73,0.00,,,0.00,Wunderground v.1.15,2013-08-15 02:28:00,
2013-08-14 22:30:00,60.5,51.8,30.16,North,4,0.0,4.0,73,0.00,,,0.00,Wunderground v.1.15,2013-08-15 02:30:00,
2013-08-14 22:34:00,60.3,52.0,30.16,North,4,0.0,4.0,74,0.00,,,0.00,Wunderground v.1.15,2013-08-15 02:34:00,
2013-08-14 22:36:00,60.2,51.9,30.16,North,4,0.0,4.0,74,0.00,,,0.00,Wunderground v.1.15,2013-08-15 02:36:00,
2013-08-14 22:38:00,60.1,51.8,30.16,North,4,0.0,4.0,74,0.00,,,0.00,Wunderground v.1.15,2013-08-15 02:38:00,
2013-08-14 22:42:00,59.9,52.0,30.16,North,4,0.0,4.0,75,0.00,,,0.00,Wunderground v.1.15,2013-08-15 02:42:00,
2013-08-14 22:44:00,59.9,51.6,30.16,North,4,0.0,4.0,74,0.00,,,0.00,Wunderground v.1.15,2013-08-15 02:44:00,
2013-08-14 22:48:00,59.7,51.8,30.16,North,4,0.0,4.0,75,0.00,,,0.00,Wunderground v.1.15,2013-08-15 02:48:00,
2013-08-14 22:50:00,59.6,51.7,30.16,North,4,0.0,4.0,75,0.00,,,0.00,Wunderground v.1.15,2013-08-15 02:50:00,
2013-08-14 22:54:00,59.4,51.8,30.16,North,4,0.0,4.0,76,0.00,,,0.00,Wunderground v.1.15,2013-08-15 02:54:00,
2013-08-14 22:56:00,59.2,51.6,30.16,North,4,0.0,4.0,76,0.00,,,0.00,Wunderground v.1.15,2013-08-15 02:56:00,
2013-08-14 22:58:00,59.0,51.8,30.16,North,4,0.0,4.0,77,0.00,,,0.00,Wunderground v.1.15,2013-08-15 02:58:00,
2013-08-14 23:00:00,58.8,51.6,30.16,North,4,0.0,4.0,77,0.00,,,0.00,Wunderground v.1.15,2013-08-15 03:00:00,
2013-08-14 23:04:00,58.3,51.5,30.16,North,4,0.0,4.0,78,0.00,,,0.00,Wunderground v.1.15,2013-08-15 03:04:00,
2013-08-14 23:06:00,58.1,51.3,30.16,North,4,0.0,4.0,78,0.00,,,0.00,Wunderground v.1.15,2013-08-15 03:06:00,
2013-08-14 23:10:00,57.7,51.6,30.16,North,4,0.0,4.0,80,0.00,,,0.00,Wunderground v.1.15,2013-08-15 03:10:00,
2013-08-14 23:12:00,57.5,51.7,30.16,North,4,0.0,4.0,81,0.00,,,0.00,Wunderground v.1.15,2013-08-15 03:12:00,
2013-08-14 23:14:00,57.4,51.6,30.16,North,4,0.0,4.0,81,0.00,,,0.00,Wunderground v.1.15,2013-08-15 03:14:00,
2013-08-14 23:18:00,57.2,52.1,30.16,North,4,0.0,4.0,83,0.00,,,0.00,Wunderground v.1.15,2013-08-15 03:18:00,
2013-08-14 23:20:00,57.1,52.0,30.16,North,4,0.0,4.0,83,0.00,,,0.00,Wunderground v.1.15,2013-08-15 03:20:00,
2013-08-14 23:24:00,56.9,51.8,30.16,North,4,0.0,4.0,83,0.00,,,0.00,Wunderground v.1.15,2013-08-15 03:24:00,
2013-08-14 23:26:00,56.8,51.7,30.16,North,4,1.0,4.0,83,0.00,,,0.00,Wunderground v.1.15,2013-08-15 03:26:00,
2013-08-14 23:30:00,56.6,51.8,30.16,North,4,1.0,4.0,84,0.00,,,0.00,Wunderground v.1.15,2013-08-15 03:30:00,
2013-08-14 23:32:00,56.4,51.6,30.16,North,4,1.0,4.0,84,0.00,,,0.00,Wunderground v.1.15,2013-08-15 03:32:00,
2013-08-14 23:34:00,56.3,51.5,30.16,North,4,1.0,4.0,84,0.00,,,0.00,Wunderground v.1.15,2013-08-15 03:34:00,
2013-08-14 23:38:00,56.0,51.6,30.16,North,4,0.0,4.0,85,0.00,,,0.00,Wunderground v.1.15,2013-08-15 03:38:00,
2013-08-14 23:40:00,55.9,51.5,30.16,North,4,0.0,4.0,85,0.00,,,0.00,Wunderground v.1.15,2013-08-15 03:40:00,
2013-08-14 23:42:00,55.8,51.0,30.16,North,4,0.0,4.0,84,0.00,,,0.00,Wunderground v.1.15,2013-08-15 03:42:00,
2013-08-14 23:44:00,55.7,50.9,30.16,North,4,0.0,4.0,84,0.00,,,0.00,Wunderground v.1.15,2013-08-15 03:44:00,
2013-08-14 23:46:00,55.5,51.1,30.16,North,4,0.0,4.0,85,0.00,,,0.00,Wunderground v.1.15,2013-08-15 03:46:00,
2013-08-14 23:48:00,55.5,51.4,30.16,North,4,0.0,4.0,86,0.00,,,0.00,Wunderground v.1.15,2013-08-15 03:48:00,
2013-08-14 23:52:00,55.5,51.7,30.16,North,4,0.0,4.0,87,0.00,,,0.00,Wunderground v.1.15,2013-08-15 03:52:00,
2013-08-14 23:54:00,55.5,52.0,30.16,North,4,0.0,4.0,88,0.00,,,0.00,Wunderground v.1.15,2013-08-15 03:54:00,